User: anonymous   Login
Location: Del Oro Observatory
(38.3044°N, 104.8119°W)
Time: 14:29:59
(UTC-06:00)
Language:

Cosmos 1602 Rocket - Orbit

View from above orbital plane
View from above orbital plane
View from above satellite
View from above satellite

Ground track
Ground track

The orbit data is extracted from the following two-line orbital elements,

1 15332U 84105B   16271.95484940  .00000193  00000-0  20602-4 0  9999
2 15332  82.5327  73.1796 0021925 151.5355   8.0107 14.83263139727710
Epoch (UTC): 27 September 2016 22:54:58
Eccentricity: 0.0021925
inclination: 82.5327°
perigee height: 604 km
apogee height: 634 km
right ascension of ascending node: 73.1796°
argument of perigee: 151.5355°
revolutions per day: 14.83263139
mean anomaly at epoch: 8.0107°
orbit number at epoch: 72771

The dashed part of the orbit path shows where the satellite is in the earth's shadow,  

DLR